Location: Austin
(30.3000°N, 97.7500°W)
Time: 04:15:24
(UTC-05:00)

Cosmos 1315 Rocket - Pass Details

Date: 01 October 2024
Orbit: 511 x 537 km, 81.2° (Epoch: 03 October)

Event Time Altitude Azimuth Distance (km) Brightness Sun altitude
Rises 19:36:11 0° 345° (NNW) 2,679 6.5 -5.3°
Reaches altitude 10° 19:38:23 10° 339° (NNW) 1,782 5.7 -5.8°
Maximum altitude 19:42:09 47° 265° (W) 707 4.0 -6.6°
Drops below altitude 10° 19:45:52 10° 192° (SSW) 1,756 5.6 -7.4°
Sets 19:48:03 0° 186° (S) 2,636 6.4 -7.8°
